| time (UTC) | temp F | wind direction | speed MPH | gust MPH | rain 1hr in | rain 24hr in | rain mn in | humidity % | barometer mb |
| 20260906045603 | 59 | 22 | 2.0 | 4.0 | 0.00 | 0.00 | 0.00 | 99 | 1016.6 |
| 20260906044600 | 59 | 2 | 2.0 | 3.0 | 0.00 | 0.00 | 0.00 | 99 | 1016.5 |
| 20260906043556 | 59 | 63 | 0.0 | 2.0 | 0.00 | 0.00 | 0.00 | 99 | 1016.6 |
| 20260906042556 | 59 | 30 | 2.0 | 4.0 | 0.00 | 0.00 | 0.00 | 99 | 1016.6 |
| 20260906041554 | 59 | 18 | 4.0 | 5.0 | 0.00 | 0.00 | 0.00 | 99 | 1016.8 |
| 20260906040549 | 59 | 33 | 2.0 | 3.0 | 0.00 | 0.00 | 0.00 | 99 | 1016.4 |
| 20260906035546 | 59 | 11 | 2.0 | 3.0 | 0.00 | 0.00 | 0.00 | 99 | 1016.6 |
| 20260906034541 | 59 | 63 | 0.0 | 2.0 | 0.00 | 0.00 | 0.00 | 98 | 1016.6 |
| 20260906033538 | 59 | 78 | 2.0 | 4.0 | 0.00 | 0.00 | 0.00 | 97 | 1016.8 |
| 20260906032535 | 60 | 18 | 4.0 | 6.0 | 0.00 | 0.00 | 0.00 | 96 | 1016.3 |
| 20260906031531 | 61 | 349 | 3.0 | 5.0 | 0.00 | 0.00 | 0.00 | 95 | 1016.3 |
| 20260906030526 | 60 | 28 | 2.0 | 3.0 | 0.00 | 0.00 | 0.00 | 96 | 1016.4 |
| 20260906025525 | 60 | 4 | 2.0 | 2.0 | 0.00 | 0.00 | 0.00 | 96 | 1016.5 |
| 20260906024525 | 60 | 277 | 0.0 | 2.0 | 0.00 | 0.00 | 0.00 | 96 | 1016.4 |
| 20260906023521 | 60 | 50 | 2.0 | 3.0 | 0.00 | 0.00 | 0.00 | 94 | 1016.1 |
| 20260906022517 | 60 | 68 | 1.0 | 2.0 | 0.00 | 0.00 | 0.00 | 95 | 1016.5 |
| 20260906021514 | 59 | 157 | 0.0 | 2.0 | 0.00 | 0.00 | 0.00 | 96 | 1016.3 |
| 20260906020513 | 59 | 123 | 0.0 | 1.0 | 0.00 | 0.00 | 0.00 | 97 | 1016.1 |
| 20260906015512 | 60 | 136 | 2.0 | 2.0 | 0.00 | 0.00 | 0.00 | 94 | 1016.0 |
| 20260906014507 | 60 | 188 | 0.0 | 2.0 | 0.00 | 0.00 | 0.00 | 94 | 1016.1 |
| 20260906013503 | 61 | 269 | 2.0 | 2.0 | 0.00 | 0.00 | 0.00 | 92 | 1016.0 |
| 20260906012500 | 62 | 326 | 0.0 | 3.0 | 0.00 | 0.00 | 0.00 | 91 | 1015.9 |
| 20260906011455 | 62 | 14 | 2.0 | 3.0 | 0.00 | 0.00 | 0.00 | 90 | 1016.3 |
| 20260906010451 | 63 | 335 | 4.0 | 5.0 | 0.00 | 0.00 | 0.00 | 90 | 1015.9 |
| 20260906005447 | 63 | 10 | 3.0 | 8.0 | 0.00 | 0.00 | 0.00 | 89 | 1015.8 |
| 20260906004445 | 63 | 9 | 3.0 | 5.0 | 0.00 | 0.00 | 0.00 | 89 | 1015.8 |
| 20260906003441 | 62 | 339 | 2.0 | 4.0 | 0.00 | 0.00 | 0.00 | 90 | 1015.6 |
| 20260906002436 | 63 | 244 | 1.0 | 4.0 | 0.00 | 0.00 | 0.00 | 89 | 1015.3 |
| 20260906001433 | 63 | 349 | 3.0 | 6.0 | 0.00 | 0.00 | 0.00 | 88 | 1015.5 |
| 20260906000429 | 64 | 341 | 4.0 | 5.0 | 0.00 | 0.00 | 0.00 | 88 | 1015.5 |
| 20260905235424 | 64 | 347 | 0.0 | 5.0 | 0.00 | 0.00 | 0.00 | 87 | 1015.2 |
| 20260905234420 | 64 | 351 | 2.0 | 3.0 | 0.00 | 0.00 | 0.00 | 86 | 1015.2 |
| 20260905233416 | 65 | 356 | 3.0 | 4.0 | 0.00 | 0.00 | 0.00 | 85 | 1015.2 |
| 20260905232411 | 66 | 359 | 0.0 | 4.0 | 0.00 | 0.00 | 0.00 | 83 | 1015.3 |
| 20260905231408 | 66 | 358 | 0.0 | 5.0 | 0.00 | 0.00 | 0.00 | 82 | 1015.1 |
| 20260905230408 | 66 | 31 | 2.0 | 3.0 | 0.00 | 0.00 | 0.00 | 82 | 1015.3 |
| 20260905225408 | 67 | 34 | 3.0 | 3.0 | 0.00 | 0.00 | 0.00 | 81 | 1015.2 |
| 20260905224405 | 68 | 356 | 2.0 | 6.0 | 0.00 | 0.00 | 0.00 | 79 | 1015.2 |
| 20260905223403 | 68 | 8 | 2.0 | 4.0 | 0.00 | 0.00 | 0.00 | 78 | 1015.0 |
| 20260905222402 | 68 | 359 | 6.0 | 6.0 | 0.00 | 0.00 | 0.00 | 78 | 1014.9 |
| 20260905221400 | 68 | 67 | 1.0 | 6.0 | 0.00 | 0.00 | 0.00 | 78 | 1014.9 |
| 20260905220358 | 67 | 329 | 1.0 | 6.0 | 0.00 | 0.00 | 0.00 | 79 | 1014.9 |
| 20260905215353 | 68 | 52 | 2.0 | 4.0 | 0.00 | 0.00 | 0.00 | 77 | 1014.9 |
| 20260905214350 | 68 | 9 | 2.0 | 5.0 | 0.00 | 0.00 | 0.00 | 77 | 1014.9 |
| 20260905213347 | 69 | 18 | 4.0 | 6.0 | 0.00 | 0.00 | 0.00 | 76 | 1014.7 |
| 20260905212347 | 69 | 337 | 4.0 | 7.0 | 0.00 | 0.00 | 0.00 | 75 | 1014.7 |
| 20260905211343 | 71 | 339 | 8.0 | 9.0 | 0.00 | 0.00 | 0.00 | 72 | 1014.6 |
| 20260905210339 | 69 | 49 | 2.0 | 4.0 | 0.00 | 0.00 | 0.00 | 75 | 1014.5 |
| 20260905205338 | 71 | 352 | 6.0 | 6.0 | 0.00 | 0.00 | 0.00 | 71 | 1014.7 |
| 20260905204334 | 69 | 12 | 3.0 | 8.0 | 0.00 | 0.00 | 0.00 | 75 | 1014.6 |
| 20260905203329 | 70 | 7 | 3.0 | 7.0 | 0.00 | 0.00 | 0.00 | 75 | 1014.6 |
| 20260905202325 | 70 | 331 | 5.0 | 10.0 | 0.00 | 0.00 | 0.00 | 70 | 1014.3 |
| 20260905201322 | 70 | 326 | 9.0 | 9.0 | 0.00 | 0.00 | 0.00 | 72 | 1014.4 |
| 20260905200318 | 69 | 291 | 2.0 | 5.0 | 0.00 | 0.00 | 0.00 | 74 | 1014.3 |
| 20260905195317 | 73 | 341 | 8.0 | 9.0 | 0.00 | 0.00 | 0.00 | 70 | 1014.4 |
| 20260905194312 | 71 | 9 | 2.0 | 8.0 | 0.00 | 0.00 | 0.00 | 75 | 1014.6 |
| 20260905193313 | 70 | 312 | 2.0 | 8.0 | 0.00 | 0.00 | 0.00 | 74 | 1014.7 |
| 20260905192310 | 70 | 54 | 4.0 | 5.0 | 0.00 | 0.00 | 0.00 | 73 | 1014.5 |
| 20260905191308 | 72 | 313 | 2.0 | 5.0 | 0.00 | 0.00 | 0.00 | 68 | 1014.6 |
| 20260905190306 | 71 | 22 | 2.0 | 7.0 | 0.00 | 0.00 | 0.00 | 73 | 1014.7 |
| 20260905185306 | 72 | 295 | 4.0 | 6.0 | 0.00 | 0.00 | 0.00 | 69 | 1014.7 |
| 20260905184305 | 71 | 70 | 2.0 | 4.0 | 0.00 | 0.00 | 0.00 | 72 | 1014.8 |
| 20260905183300 | 70 | 3 | 6.0 | 7.0 | 0.00 | 0.00 | 0.00 | 70 | 1014.6 |
| 20260905182259 | 70 | 345 | 8.0 | 11.0 | 0.00 | 0.00 | 0.00 | 67 | 1014.9 |
| 20260905181254 | 71 | 64 | 0.0 | 6.0 | 0.00 | 0.00 | 0.00 | 78 | 1014.7 |
| 20260905180249 | 71 | 349 | 2.0 | 8.0 | 0.00 | 0.00 | 0.00 | 70 | 1014.6 |
| 20260905175244 | 71 | 66 | 2.0 | 9.0 | 0.00 | 0.00 | 0.00 | 72 | 1014.8 |
| 20260905174241 | 70 | 344 | 2.0 | 9.0 | 0.00 | 0.00 | 0.00 | 74 | 1014.8 |
| 20260905173238 | 69 | 18 | 2.0 | 9.0 | 0.00 | 0.00 | 0.00 | 74 | 1015.0 |
| 20260905172237 | 69 | 157 | 0.0 | 7.0 | 0.00 | 0.00 | 0.00 | 79 | 1014.9 |
| 20260905171235 | 68 | 352 | 1.0 | 8.0 | 0.00 | 0.00 | 0.00 | 80 | 1015.1 |
| 20260905170233 | 68 | 302 | 3.0 | 9.0 | 0.00 | 0.00 | 0.00 | 79 | 1015.4 |
| 20260905165233 | 68 | 73 | 9.0 | 12.0 | 0.00 | 0.00 | 0.00 | 78 | 1015.4 |
| 20260905164234 | 69 | 0 | 6.0 | 10.0 | 0.00 | 0.00 | 0.00 | 78 | 1015.2 |
| 20260905163232 | 69 | 312 | 2.0 | 7.0 | 0.00 | 0.00 | 0.00 | 76 | 1015.3 |
| 20260905162227 | 70 | 349 | 2.0 | 3.0 | 0.00 | 0.00 | 0.00 | 76 | 1015.3 |
| 20260905161226 | 69 | 10 | 1.0 | 8.0 | 0.00 | 0.00 | 0.00 | 79 | 1015.5 |
| 20260905160225 | 68 | 356 | 8.0 | 9.0 | 0.00 | 0.00 | 0.00 | 77 | 1015.3 |
| 20260905155225 | 68 | 314 | 3.0 | 9.0 | 0.00 | 0.00 | 0.00 | 80 | 1015.4 |
| 20260905154221 | 68 | 328 | 7.0 | 9.0 | 0.00 | 0.00 | 0.00 | 78 | 1015.5 |
| 20260905153218 | 67 | 345 | 3.0 | 8.0 | 0.00 | 0.00 | 0.00 | 81 | 1015.4 |
| 20260905152213 | 67 | 30 | 2.0 | 5.0 | 0.00 | 0.00 | 0.00 | 82 | 1015.5 |
| 20260905151209 | 67 | 353 | 6.0 | 8.0 | 0.00 | 0.00 | 0.00 | 82 | 1015.5 |
| 20260905150208 | 67 | 0 | 5.0 | 13.0 | 0.00 | 0.00 | 0.00 | 82 | 1015.4 |
| 20260905145207 | 67 | 44 | 2.0 | 9.0 | 0.00 | 0.00 | 0.00 | 82 | 1015.6 |
| 20260905144206 | 67 | 104 | 8.0 | 9.0 | 0.00 | 0.00 | 0.00 | 84 | 1015.3 |
| 20260905143205 | 66 | 41 | 3.0 | 10.0 | 0.00 | 0.00 | 0.00 | 85 | 1015.4 |
| 20260905142204 | 65 | 96 | 6.0 | 7.0 | 0.00 | 0.00 | 0.00 | 87 | 1015.5 |
| 20260905141201 | 65 | 87 | 8.0 | 11.0 | 0.00 | 0.00 | 0.00 | 87 | 1015.3 |
| 20260905140156 | 66 | 43 | 7.0 | 14.0 | 0.00 | 0.00 | 0.00 | 86 | 1015.5 |
| 20260905135153 | 64 | 348 | 11.0 | 12.0 | 0.00 | 0.00 | 0.00 | 90 | 1015.4 |
| 20260905134151 | 62 | 74 | 7.0 | 8.0 | 0.00 | 0.00 | 0.00 | 92 | 1015.4 |
| 20260905133147 | 64 | 355 | 3.0 | 5.0 | 0.00 | 0.00 | 0.00 | 92 | 1015.4 |
| 20260905132148 | 64 | 16 | 2.0 | 6.0 | 0.00 | 0.00 | 0.00 | 93 | 1015.5 |
| 20260905131143 | 63 | 26 | 3.0 | 14.0 | 0.00 | 0.00 | 0.00 | 94 | 1015.4 |
| 20260905130143 | 65 | 313 | 4.0 | 7.0 | 0.00 | 0.00 | 0.00 | 91 | 1015.4 |
| 20260905125140 | 65 | 302 | 5.0 | 6.0 | 0.00 | 0.00 | 0.00 | 91 | 1015.3 |
| 20260905124137 | 63 | 343 | 3.0 | 9.0 | 0.00 | 0.00 | 0.00 | 94 | 1015.1 |
| 20260905123136 | 64 | 20 | 2.0 | 7.0 | 0.00 | 0.00 | 0.00 | 93 | 1015.2 |
| 20260905122130 | 64 | 40 | 3.0 | 4.0 | 0.00 | 0.00 | 0.00 | 92 | 1015.4 |
| 20260905121126 | 64 | 43 | 1.0 | 3.0 | 0.00 | 0.00 | 0.00 | 93 | 1015.1 |
| 20260905120120 | 62 | 335 | 2.0 | 5.0 | 0.00 | 0.00 | 0.00 | 95 | 1015.4 |
| 20260905115120 | 62 | 345 | 3.0 | 3.0 | 0.00 | 0.00 | 0.00 | 95 | 1015.3 |
| 20260905114118 | 62 | 2 | 3.0 | 4.0 | 0.00 | 0.00 | 0.00 | 97 | 1015.3 |
| 20260905113115 | 60 | 15 | 2.0 | 5.0 | 0.00 | 0.00 | 0.00 | 99 | 1015.1 |
| 20260905112111 | 60 | 257 | 0.0 | 2.0 | 0.00 | 0.00 | 0.00 | 99 | 1015.0 |
| 20260905111110 | 59 | 53 | 0.0 | 2.0 | 0.00 | 0.00 | 0.00 | 99 | 1014.9 |
| 20260905110105 | 58 | 109 | 1.0 | 2.0 | 0.00 | 0.00 | 0.00 | 99 | 1014.6 |
| 20260905105105 | 58 | 96 | 1.0 | 2.0 | 0.00 | 0.00 | 0.00 | 99 | 1014.8 |
| 20260905104100 | 58 | 13 | 0.0 | 2.0 | 0.00 | 0.00 | 0.00 | 99 | 1014.4 |
| 20260905103058 | 58 | 65 | 0.0 | 2.0 | 0.00 | 0.00 | 0.00 | 99 | 1014.4 |
| 20260905102056 | 59 | 139 | 0.0 | 2.0 | 0.00 | 0.00 | 0.00 | 99 | 1014.5 |
| 20260905101052 | 59 | 38 | 2.0 | 3.0 | 0.00 | 0.00 | 0.00 | 99 | 1014.1 |
| 20260905100048 | 59 | 29 | 0.0 | 1.0 | 0.00 | 0.00 | 0.00 | 99 | 1014.3 |
| 20260905095044 | 59 | 7 | 2.0 | 2.0 | 0.00 | 0.00 | 0.00 | 99 | 1014.1 |
| 20260905094044 | 59 | 346 | 0.0 | 2.0 | 0.00 | 0.00 | 0.00 | 99 | 1014.3 |
| 20260905093041 | 59 | 31 | 2.0 | 2.0 | 0.00 | 0.00 | 0.00 | 99 | 1014.1 |
| 20260905092037 | 59 | 61 | 2.0 | 3.0 | 0.00 | 0.00 | 0.00 | 99 | 1014.0 |
| 20260905091036 | 59 | 29 | 0.0 | 3.0 | 0.00 | 0.00 | 0.00 | 98 | 1013.9 |
| 20260905090032 | 59 | 357 | 0.0 | 2.0 | 0.00 | 0.00 | 0.00 | 98 | 1014.0 |
| 20260905085026 | 60 | 144 | 1.0 | 3.0 | 0.00 | 0.00 | 0.00 | 97 | 1014.3 |
| 20260905084026 | 60 | 18 | 2.0 | 2.0 | 0.00 | 0.00 | 0.00 | 97 | 1014.3 |
| 20260905083024 | 60 | 69 | 0.0 | 1.0 | 0.00 | 0.00 | 0.00 | 97 | 1014.4 |
| 20260905082021 | 60 | 217 | 0.0 | 3.0 | 0.00 | 0.00 | 0.00 | 96 | 1014.3 |
| 20260905081020 | 60 | 350 | 1.0 | 2.0 | 0.00 | 0.00 | 0.00 | 96 | 1014.4 |
| 20260905080016 | 60 | 202 | 0.0 | 0.0 | 0.00 | 0.00 | 0.00 | 97 | 1014.5 |
| 20260905075014 | 60 | 313 | 0.0 | 1.0 | 0.00 | 0.00 | 0.00 | 96 | 1014.4 |
| 20260905074011 | 60 | 207 | 1.0 | 1.0 | 0.00 | 0.00 | 0.00 | 96 | 1014.4 |
| 20260905073008 | 61 | 258 | 0.0 | 1.0 | 0.00 | 0.00 | 0.00 | 95 | 1014.3 |
| 20260905072003 | 61 | 214 | 1.0 | 2.0 | 0.00 | 0.00 | 0.00 | 94 | 1014.3 |
| 20260905070959 | 62 | 283 | 0.0 | 1.0 | 0.00 | 0.00 | 0.00 | 94 | 1014.6 |
| 20260905065955 | 62 | 142 | 0.0 | 1.0 | 0.00 | 0.00 | 0.00 | 93 | 1014.6 |
| 20260905064954 | 62 | 143 | 0.0 | 2.0 | 0.00 | 0.00 | 0.00 | 94 | 1014.8 |
| 20260905063950 | 62 | 170 | 0.0 | 2.0 | 0.00 | 0.00 | 0.00 | 95 | 1014.7 |
| 20260905062947 | 63 | 216 | 0.0 | 2.0 | 0.00 | 0.00 | 0.00 | 93 | 1014.8 |
| 20260905061942 | 63 | 307 | 1.0 | 2.0 | 0.00 | 0.00 | 0.00 | 93 | 1014.9 |
| 20260905060941 | 64 | 24 | 0.0 | 2.0 | 0.00 | 0.00 | 0.00 | 91 | 1014.9 |
| 20260905055937 | 63 | 48 | 0.0 | 2.0 | 0.00 | 0.00 | 0.00 | 91 | 1015.0 |
| 20260905054937 | 64 | 8 | 2.0 | 4.0 | 0.00 | 0.00 | 0.00 | 90 | 1015.1 |
| 20260905053932 | 64 | 5 | 1.0 | 4.0 | 0.00 | 0.00 | 0.00 | 90 | 1015.1 |
| 20260905052929 | 64 | 23 | 0.0 | 2.0 | 0.00 | 0.00 | 0.00 | 91 | 1015.2 |
| 20260905051928 | 64 | 63 | 2.0 | 2.0 | 0.00 | 0.00 | 0.00 | 90 | 1015.2 |
| 20260905050927 | 65 | 19 | 0.0 | 2.0 | 0.00 | 0.00 | 0.00 | 91 | 1015.4 |